TimeEST,TemperatureF,Dew PointF,Humidity,Sea Level PressureIn,VisibilityMPH,Wind Direction,Wind SpeedMPH,Gust SpeedMPH,PrecipitationIn,Events,Conditions,WindDirDegrees,DateUTC
12:15 AM,59.0,59.0,100,29.90,7.0,SW,4.6,-,N/A,,Mostly Cloudy,230,2014-01-06 05:15:00
12:35 AM,60.8,60.8,100,29.89,10.0,SW,6.9,-,N/A,,Overcast,220,2014-01-06 05:35:00
12:55 AM,62.6,62.6,100,29.89,7.0,WSW,10.4,-,N/A,,Overcast,240,2014-01-06 05:55:00
1:15 AM,62.6,62.6,100,29.88,7.0,WSW,9.2,-,N/A,,Overcast,250,2014-01-06 06:15:00
1:35 AM,62.6,62.6,100,29.88,7.0,WSW,6.9,-,N/A,,Overcast,240,2014-01-06 06:35:00
1:55 AM,62.6,62.6,100,29.87,7.0,SW,8.1,-,N/A,,Overcast,220,2014-01-06 06:55:00
2:15 AM,62.6,62.6,100,29.87,7.0,SW,6.9,-,N/A,,Overcast,220,2014-01-06 07:15:00
2:35 AM,64.4,64.4,100,29.87,10.0,SW,8.1,-,N/A,,Overcast,220,2014-01-06 07:35:00
2:55 AM,64.4,64.4,100,29.87,10.0,SSW,8.1,-,N/A,,Mostly Cloudy,210,2014-01-06 07:55:00
3:15 AM,64.4,62.6,94,29.86,10.0,SSW,8.1,-,N/A,,Scattered Clouds,210,2014-01-06 08:15:00
3:35 AM,64.4,64.4,100,29.86,10.0,SW,6.9,-,N/A,,Mostly Cloudy,220,2014-01-06 08:35:00
3:55 AM,64.4,64.4,100,29.86,10.0,SW,9.2,-,N/A,,Overcast,230,2014-01-06 08:55:00
4:15 AM,64.4,64.4,100,29.86,10.0,SW,8.1,-,N/A,,Mostly Cloudy,230,2014-01-06 09:15:00
4:35 AM,64.4,64.4,100,29.86,10.0,SW,8.1,-,N/A,,Mostly Cloudy,230,2014-01-06 09:35:00
4:55 AM,64.4,64.4,100,29.85,10.0,SW,9.2,-,N/A,,Mostly Cloudy,220,2014-01-06 09:55:00
5:15 AM,64.4,64.4,100,29.85,10.0,SW,5.8,-,N/A,,Overcast,220,2014-01-06 10:15:00
5:35 AM,66.2,64.4,94,29.84,10.0,SSW,6.9,17.3,N/A,,Overcast,210,2014-01-06 10:35:00
5:55 AM,66.2,64.4,94,29.84,10.0,SSW,11.5,-,N/A,,Overcast,210,2014-01-06 10:55:00
6:15 AM,64.4,60.8,88,29.87,7.0,NW,28.8,40.3,N/A,Rain,Heavy Rain,320,2014-01-06 11:15:00
6:35 AM,53.6,53.6,100,29.91,7.0,WNW,19.6,23.0,N/A,Rain,Light Rain,300,2014-01-06 11:35:00
6:55 AM,51.8,51.8,100,29.92,10.0,NW,21.9,26.5,N/A,,Light Drizzle,310,2014-01-06 11:55:00
7:15 AM,51.8,51.8,100,29.95,10.0,NW,17.3,24.2,N/A,Rain,Rain,310,2014-01-06 12:15:00
7:35 AM,50.0,48.2,94,29.95,10.0,NW,19.6,26.5,N/A,,Overcast,320,2014-01-06 12:35:00
7:55 AM,48.2,46.4,93,29.98,10.0,NW,15.0,24.2,N/A,,Overcast,320,2014-01-06 12:55:00
8:15 AM,46.4,44.6,93,30.00,10.0,NW,12.7,24.2,N/A,,Overcast,310,2014-01-06 13:15:00
8:35 AM,46.4,44.6,93,30.01,10.0,NW,17.3,23.0,N/A,,Overcast,310,2014-01-06 13:35:00
8:55 AM,46.4,44.6,93,30.03,10.0,NW,20.7,25.3,N/A,,Overcast,320,2014-01-06 13:55:00
9:15 AM,44.6,42.8,93,30.05,10.0,NW,23.0,28.8,N/A,,Overcast,310,2014-01-06 14:15:00
9:35 AM,44.6,41.0,87,30.08,10.0,NW,20.7,28.8,N/A,,Overcast,310,2014-01-06 14:35:00
9:55 AM,42.8,37.4,81,30.11,10.0,NW,20.7,32.2,N/A,,Overcast,310,2014-01-06 14:55:00
10:15 AM,42.8,35.6,76,30.12,10.0,NW,26.5,32.2,N/A,,Mostly Cloudy,320,2014-01-06 15:15:00
10:35 AM,42.8,35.6,76,30.14,10.0,NW,23.0,27.6,N/A,,Mostly Cloudy,320,2014-01-06 15:35:00
10:55 AM,41.0,35.6,81,30.15,10.0,NW,19.6,28.8,N/A,,Mostly Cloudy,310,2014-01-06 15:55:00
11:15 AM,39.2,33.8,81,30.16,10.0,WNW,17.3,27.6,N/A,,Overcast,300,2014-01-06 16:15:00
11:35 AM,37.4,32.0,81,30.16,10.0,NW,19.6,-,N/A,,Overcast,320,2014-01-06 16:35:00
11:55 AM,37.4,32.0,81,30.15,10.0,NW,20.7,28.8,N/A,,Overcast,320,2014-01-06 16:55:00
12:15 PM,41.0,32.0,70,30.15,10.0,NW,15.0,25.3,N/A,,Mostly Cloudy,320,2014-01-06 17:15:00
12:35 PM,42.8,32.0,66,30.14,10.0,NNW,13.8,26.5,N/A,,Clear,330,2014-01-06 17:35:00
12:55 PM,42.8,32.0,66,30.14,10.0,NNW,15.0,24.2,N/A,,Clear,330,2014-01-06 17:55:00
1:15 PM,42.8,30.2,61,30.14,10.0,NW,15.0,21.9,N/A,,Clear,320,2014-01-06 18:15:00
1:35 PM,42.8,30.2,61,30.14,10.0,NW,16.1,28.8,N/A,,Clear,320,2014-01-06 18:35:00
1:55 PM,42.8,30.2,61,30.15,10.0,NW,18.4,25.3,N/A,,Clear,320,2014-01-06 18:55:00
2:15 PM,44.6,28.4,53,30.15,10.0,NNW,15.0,25.3,N/A,,Clear,330,2014-01-06 19:15:00
2:35 PM,42.8,28.4,57,30.15,10.0,NW,19.6,31.1,N/A,,Clear,320,2014-01-06 19:35:00
2:55 PM,42.8,28.4,57,30.16,10.0,NW,16.1,20.7,N/A,,Clear,310,2014-01-06 19:55:00
3:15 PM,44.6,30.2,57,30.16,10.0,NW,16.1,19.6,N/A,,Clear,320,2014-01-06 20:15:00
3:35 PM,42.8,28.4,57,30.17,10.0,WNW,13.8,24.2,N/A,,Clear,300,2014-01-06 20:35:00
3:55 PM,42.8,28.4,57,30.17,10.0,NW,13.8,19.6,N/A,,Clear,310,2014-01-06 20:55:00
4:15 PM,42.8,26.6,53,30.18,10.0,WNW,16.1,-,N/A,,Clear,290,2014-01-06 21:15:00
4:35 PM,42.8,24.8,49,30.18,10.0,NW,18.4,23.0,N/A,,Clear,310,2014-01-06 21:35:00
4:55 PM,42.8,26.6,53,30.18,10.0,NW,17.3,24.2,N/A,,Clear,310,2014-01-06 21:55:00
5:15 PM,41.0,23.0,49,30.20,10.0,NW,18.4,24.2,N/A,,Clear,320,2014-01-06 22:15:00
5:35 PM,41.0,23.0,49,30.20,10.0,NNW,9.2,-,N/A,,Clear,330,2014-01-06 22:35:00
5:55 PM,39.2,26.6,61,30.22,10.0,NW,16.1,19.6,N/A,,Clear,310,2014-01-06 22:55:00
6:15 PM,39.2,23.0,52,30.23,10.0,NW,13.8,-,N/A,,Clear,310,2014-01-06 23:15:00
6:35 PM,39.2,23.0,52,30.24,10.0,NW,15.0,25.3,N/A,,Clear,310,2014-01-06 23:35:00
6:55 PM,37.4,23.0,56,30.25,10.0,NW,15.0,-,N/A,,Clear,310,2014-01-06 23:55:00
7:15 PM,37.4,23.0,56,30.26,10.0,NW,19.6,25.3,N/A,,Clear,320,2014-01-07 00:15:00
7:35 PM,37.4,19.4,48,30.29,10.0,NW,18.4,24.2,N/A,,Clear,320,2014-01-07 00:35:00
7:55 PM,35.6,17.6,48,30.30,10.0,NW,17.3,23.0,N/A,,Clear,320,2014-01-07 00:55:00
8:15 PM,35.6,17.6,48,30.31,10.0,NW,19.6,27.6,N/A,,Clear,320,2014-01-07 01:15:00
8:35 PM,35.6,19.4,52,30.33,10.0,NW,12.7,20.7,N/A,,Clear,320,2014-01-07 01:35:00
8:55 PM,35.6,17.6,48,30.33,10.0,NW,11.5,17.3,N/A,,Clear,320,2014-01-07 01:55:00
9:15 PM,33.8,17.6,52,30.35,10.0,NW,18.4,28.8,N/A,,Clear,320,2014-01-07 02:15:00
9:35 PM,33.8,15.8,48,30.36,10.0,NW,17.3,-,N/A,,Clear,310,2014-01-07 02:35:00
9:55 PM,33.8,15.8,48,30.38,10.0,NW,13.8,19.6,N/A,,Clear,320,2014-01-07 02:55:00
10:15 PM,32.0,14.0,48,30.38,10.0,NW,16.1,20.7,N/A,,Clear,320,2014-01-07 03:15:00
10:35 PM,32.0,17.6,55,30.40,10.0,NW,9.2,-,N/A,,Clear,320,2014-01-07 03:35:00
10:55 PM,32.0,12.2,44,30.40,10.0,NW,16.1,24.2,N/A,,Clear,320,2014-01-07 03:55:00
11:15 PM,32.0,14.0,48,30.41,10.0,NNW,13.8,20.7,N/A,,Clear,330,2014-01-07 04:15:00
11:35 PM,32.0,14.0,48,30.41,10.0,NW,13.8,-,N/A,,Clear,320,2014-01-07 04:35:00
11:55 PM,30.2,12.2,47,30.42,10.0,NNW,11.5,-,N/A,,Clear,330,2014-01-07 04:55:00